Find Kuiper-00159

NORAD ID: 67764 Int'l Des: 2026-030 Owner: KUIP Country: US Constellation: amazon-leo operational
LEOCIRCULAR

現在のビュー

3D地球を読み込み中...

About Kuiper-00159

Kuiper-00159 (NORAD 67764) is a amazon-leo constellation satellite launched Feb 12, 2026 by KUIP of US. It operates in LEO, CIRCULAR orbit with a mass of 490.00 kg.

Kuiper-00159について

説明を読み込み中...

次回通過

Passes for default location (London). Set your location on the main map for personalized predictions.

高度履歴

Loading altitude history...

軌道要素

1 67764U 26030A 26160.63250367 .00025764 00000-0 68482-3 0 9993
2 67764 51.8839 134.9049 0007336 23.8138 336.3187 15.38057642 19237
Epoch: Jun 9, 2026 • Age: 18 hours

現在のステータス

高度 471.9 km
速度 7.63 km/s
衛星直下点 -49.06°S, 24.92°W
打ち上げ日 Feb 12, 2026
運用期間 0.3 years
タイプ internet

技術仕様

分類 Payload
質量 490.00 kg
乾燥質量 490.00 kg
総質量 490.00 kg
長さ 1.80 m
直径 0.70 m
スパン 5.00 m
形状 Box + 2 pan
製造者 KUIP
バスタイプ Kuiper
フェーズステータス In Orbit
所有者/国 KUIP/US

Most Searched